Dewpoint
54 41 42 39 29 24 20 18 17 13 12 23 26 35 43 48 50 49 51 59 64 68 71 72 72 73 73 73 72 72 73 73 73 73 73 74 73 73 73 73 73 73 73 72 71 71 72 72 72
47 42 36 33 20 16 14 18 15 12 23 25 21 30 48 47 53 54 56 60 63 69 71 72 72 72 72 72 72 72 73 73 73 73 74 74 73 73 73 72 72 72 72 71 71 71 71 71 71
45 42 32 22 18 16 16 15 9 15 25 25 24 22 50 52 52 54 56 59 64 67 70 72 72 72 72 72 72 72 72 72 73 73 74 74 73 73 72 72 72 72 72 71 71 72 71 71 70
33 33 31 18 15 17 15 15 14 12 22 28 29 50 52 54 55 53 56 60 62 66 70 71 71 71 72 72 72 72 72 72 72 72 73 73 73 73 72 72 72 72 72 72 71 71 71 69 68
30 29 22 21 13 13 14 14 12 13 25 28 25 48 53 57 54 54 55 57 61 67 70 71 70 71 72 72 72 72 71 71 72 72 73 73 73 72 72 71 72 72 72 72 71 71 70 69 68
26 27 20 17 16 17 15 11 8 19 20 21 21 50 55 56 53 53 54 56 59 68 70 70 71 71 71 72 72 71 71 71 71 72 72 72 72 71 71 71 71 71 71 71 70 70 69 69 68
24 24 21 18 15 13 12 13 11 20 16 19 26 47 55 53 54 53 53 55 66 67 69 70 70 72 71 70 70 70 70 70 71 71 71 71 71 70 70 71 71 71 71 70 69 69 68 68 68
26 25 22 21 18 16 15 12 9 18 24 34 29 50 54 54 56 56 54 63 64 65 68 69 70 70 71 71 69 69 69 70 70 70 70 70 70 70 70 70 70 70 70 70 69 68 68 67 66
28 21 21 21 18 16 16 16 12 13 13 26 44 56 56 55 57 56 58 61 62 64 65 68 69 70 69 70 70 70 70 70 70 70 70 69 69 69 69 69 69 70 69 68 68 67 67 66 65
23 21 20 23 20 16 16 12 12 12 13 25 50 57 57 55 56 56 58 61 60 61 63 65 67 69 69 69 69 69 69 69 69 69 69 68 67 67 68 68 68 68 68 68 67 66 66 65 62
21 19 20 22 22 20 17 16 13 12 11 17 47 56 57 55 57 57 57 62 60 61 62 63 64 66 67 67 68 68 68 68 68 68 68 66 65 66 66 66 67 66 67 66 66 65 64 62 60
23 19 18 19 20 18 17 18 16 16 20 20 26 52 58 55 55 56 57 60 62 61 61 63 62 63 61 66 66 65 65 66 66 66 67 65 63 63 62 65 65 65 64 63 63 62 61 59 58
32 23 21 17 17 18 18 19 18 17 20 20 19 46 57 57 56 56 56 58 63 62 62 63 63 62 61 63 61 62 63 64 64 64 66 64 63 61 62 64 64 63 62 61 61 60 59 58 57
30 27 24 20 17 16 18 19 20 18 21 21 20 21 37 52 56 56 55 57 60 62 63 63 63 63 61 62 59 61 61 62 63 63 65 62 62 63 61 63 63 61 61 59 60 58 59 58 58
37 30 27 21 17 15 18 18 19 20 20 20 19 17 18 25 28 47 56 56 59 61 63 63 64 64 63 65 61 61 62 61 62 63 64 63 63 64 62 63 62 61 61 59 60 58 60 58 60
39 39 28 23 18 12 18 16 18 20 19 19 19 18 17 18 22 27 42 56 57 61 63 63 64 64 63 63 64 61 63 62 62 63 64 64 63 65 63 62 63 61 61 59 59 60 60 60 60
38 36 34 27 18 12 10 14 17 20 20 20 19 18 16 18 18 20 22 43 56 59 63 63 64 64 64 63 67 64 64 65 63 65 64 65 63 66 65 64 62 64 63 62 61 62 62 61 62
34 34 34 30 18 13 8 11 13 18 20 20 19 18 16 17 18 18 19 27 51 58 62 64 64 65 65 64 66 67 64 65 65 65 67 66 65 65 67 64 64 64 65 64 63 62 63 63 62
35 33 30 31 24 12 9 6 13 16 17 16 17 17 16 16 16 17 20 27 37 56 62 63 64 66 66 66 64 66 64 64 64 66 65 69 66 66 66 66 65 65 63 63 64 63 63 63 64
34 34 29 29 28 23 10 5 8 13 15 15 15 17 16 15 17 18 16 32 40 56 60 62 63 66 67 67 65 65 66 65 66 64 66 67 68 67 66 66 65 65 64 63 64 63 63 63 64
31 31 29 28 26 25 20 16 10 8 14 16 16 17 16 14 15 17 22 20 36 54 59 62 63 65 67 66 67 66 66 65 65 65 64 66 68 68 68 66 66 65 66 63 63 63 62 62 63
29 31 29 28 26 23 25 26 29 23 18 13 15 16 14 15 15 21 27 27 38 52 61 63 62 64 66 66 66 65 64 64 64 65 65 66 68 68 68 68 66 66 66 65 63 64 63 62 61
23 27 28 26 25 28 27 34 34 32 27 14 15 17 16 18 17 25 26 28 32 59 60 64 63 63 65 65 65 65 64 64 64 64 65 65 67 68 68 68 68 67 66 66 65 64 65 63 62
19 23 26 25 29 28 29 29 33 32 29 22 23 23 18 22 23 21 25 28 34 44 53 61 63 64 65 66 66 65 65 63 63 63 64 65 65 66 67 67 67 68 67 66 65 65 64 64 63
13 26 27 22 28 27 28 27 26 34 31 28 26 27 29 32 26 23 28 37 42 45 47 49 54 60 63 65 66 66 65 65 63 64 65 65 65 66 66 67 67 67 68 67 66 65 65 65 64
29 24 29 21 23 24 29 27 24 30 31 33 30 29 30 35 38 40 41 41 43 45 48 48 48 47 50 56 64 65 65 66 65 65 65 66 66 66 66 66 66 67 67 67 66 66 66 65 65
30 26 28 30 29 27 27 23 25 25 28 28 27 34 35 37 37 37 39 40 41 43 47 49 49 50 51 50 50 54 60 66 67 66 66 65 65 67 67 67 67 67 67 67 66 66 65 65 65
32 35 26 32 21 20 27 22 24 31 30 30 32 32 33 36 35 35 37 38 39 40 44 50 50 52 53 55 55 52 53 56 63 66 66 66 65 66 67 68 67 67 67 67 67 66 66 65 66
30 28 31 34 32 27 22 27 37 36 36 32 27 26 28 29 31 35 35 37 37 36 37 42 48 49 50 52 53 57 59 56 60 63 65 65 65 65 66 66 67 67 67 67 66 66 66 66 66
31 32 30 17 18 26 27 32 36 38 35 34 34 33 30 29 28 29 32 34 32 34 34 34 43 45 47 48 50 53 60 61 61 61 63 65 65 65 65 66 67 67 67 66 66 66 66 65 65
Lifted_Index
9 8 7 6 5 4 3 2 1 1 1 1 1 -0 -1 -1 -1 -0 -0 0 0 -1 -2 -2 -3 -3 -2 -2 -2 -2 -2 -2 -2 -3 -3 -3 -3 -3 -3 -3 -4 -4 -3 -3 -3 -3 -3 -3 -2
9 9 7 6 4 3 3 2 1 1 1 1 1 -0 -1 -2 -1 -1 -0 0 0 -1 -2 -2 -3 -2 -2 -2 -2 -2 -2 -2 -2 -2 -3 -3 -3 -3 -3 -3 -3 -3 -3 -2 -2 -2 -2 -2 -2
9 8 7 6 4 3 2 2 1 1 1 1 1 -0 -2 -2 -1 -1 0 0 0 -1 -2 -2 -3 -2 -2 -2 -2 -2 -2 -2 -2 -2 -3 -3 -3 -2 -2 -2 -2 -3 -2 -2 -2 -2 -2 -1 -1
9 8 7 6 4 4 3 2 1 1 1 1 1 -1 -3 -3 -2 -1 -0 1 0 -1 -2 -2 -2 -2 -2 -2 -2 -2 -2 -2 -2 -2 -3 -3 -3 -2 -2 -2 -2 -2 -2 -2 -2 -1 -1 -0 0
8 8 6 5 4 4 4 3 2 1 1 1 0 -2 -3 -3 -2 -1 -0 1 0 -1 -2 -2 -2 -2 -2 -2 -2 -2 -1 -1 -2 -2 -2 -2 -2 -2 -2 -2 -2 -2 -2 -2 -1 -1 -0 1 1
8 7 6 5 5 5 4 3 2 1 1 1 0 -2 -3 -3 -2 -1 0 1 1 -1 -2 -2 -2 -3 -3 -2 -2 -2 -1 -1 -1 -2 -2 -2 -2 -1 -1 -1 -2 -2 -2 -1 -1 -0 0 1 1
8 7 6 5 5 5 4 3 2 1 1 1 0 -2 -3 -3 -1 -0 0 1 1 -0 -1 -2 -2 -3 -3 -2 -2 -1 -1 -1 -1 -2 -2 -2 -1 -1 -1 -1 -1 -2 -1 -1 -0 0 1 1 1
7 6 5 5 5 4 4 3 2 1 1 1 -0 -3 -4 -3 -1 -0 0 0 1 0 -1 -2 -2 -2 -2 -2 -2 -1 -1 -1 -1 -1 -1 -1 -1 -0 -0 -1 -1 -1 -1 -0 0 1 1 1 1
6 5 5 5 5 4 4 3 2 1 1 0 -2 -4 -4 -3 -1 -1 -0 0 0 1 0 -1 -1 -2 -2 -2 -2 -1 -1 -1 -1 -1 -1 -0 0 0 0 0 -0 -1 -0 0 1 1 1 2 2
6 5 5 5 6 5 4 3 3 2 1 -1 -3 -4 -4 -3 -2 -1 -1 -1 0 1 1 0 -1 -1 -2 -2 -2 -1 -1 -0 -0 -0 -0 0 0 1 1 1 0 0 0 1 1 2 2 3 3
6 6 5 6 6 5 4 4 4 2 1 0 -2 -4 -4 -3 -3 -2 -2 -2 -1 0 1 1 0 -0 -1 -1 -1 -1 -0 -0 0 0 0 1 1 1 1 1 1 1 1 2 2 3 3 4 4
6 6 7 7 7 6 5 5 4 3 2 2 0 -3 -4 -4 -3 -2 -2 -2 -2 -1 0 1 1 1 -0 -0 -0 -0 0 1 1 1 1 1 1 2 2 2 2 2 2 3 3 4 4 5 5
6 6 7 8 7 6 5 5 5 4 4 4 3 0 -2 -3 -3 -3 -2 -2 -2 -2 -1 0 1 1 1 0 0 1 1 1 1 1 1 2 2 2 2 2 2 2 3 4 4 4 5 5 5
6 6 7 7 7 7 6 5 5 5 4 4 4 3 1 -1 -2 -3 -3 -3 -3 -3 -2 -1 -0 0 1 0 1 1 1 2 2 1 2 2 2 2 2 2 2 2 3 4 4 4 5 5 5
5 5 6 7 7 7 6 4 4 5 5 4 4 5 4 3 2 -0 -2 -3 -3 -3 -3 -3 -2 -1 -0 -1 -0 0 1 1 1 1 1 2 2 1 1 1 1 1 2 3 3 3 3 3 3
3 4 5 6 7 7 6 5 4 5 5 4 4 4 5 6 5 4 1 -1 -3 -3 -4 -4 -3 -2 -1 -2 -2 -1 -1 0 0 0 0 1 1 0 0 0 0 0 1 2 2 2 2 2 2
3 3 4 5 6 7 6 5 5 6 6 5 4 4 4 5 6 6 4 1 -2 -3 -4 -4 -4 -3 -3 -3 -3 -2 -2 -2 -1 -1 -1 -1 -1 -1 -1 -1 -0 -0 0 0 1 1 1 1 1
3 3 3 4 5 6 6 6 6 6 6 6 5 5 5 5 6 6 5 4 0 -2 -4 -4 -4 -4 -4 -4 -4 -3 -3 -3 -3 -3 -3 -2 -2 -2 -2 -2 -1 -0 -0 -0 -0 0 0 0 0
3 3 3 3 4 4 5 5 6 6 6 6 6 6 5 5 6 6 5 5 2 -2 -4 -4 -4 -5 -5 -5 -4 -4 -4 -4 -4 -4 -4 -4 -3 -3 -3 -2 -2 -1 -1 -1 -1 -0 -0 -0 -1
2 2 3 3 3 3 3 4 5 5 5 5 6 6 6 5 5 5 5 5 2 -1 -4 -4 -5 -5 -6 -6 -5 -5 -5 -5 -5 -5 -5 -5 -5 -4 -4 -3 -3 -2 -2 -1 -1 -1 -1 -1 -1
2 2 2 2 2 2 2 2 3 4 4 5 5 5 5 5 5 5 5 4 2 -1 -4 -4 -5 -5 -6 -6 -6 -6 -5 -5 -5 -5 -5 -6 -6 -5 -5 -4 -3 -3 -3 -2 -2 -1 -1 -1 -2
2 2 2 1 1 1 0 1 2 3 3 4 4 5 5 5 5 5 4 4 2 -1 -4 -5 -5 -5 -5 -6 -6 -6 -5 -5 -5 -5 -6 -6 -6 -6 -6 -5 -5 -4 -4 -3 -3 -2 -2 -2 -2
3 2 1 0 0 0 0 1 1 2 2 2 3 4 5 5 5 5 4 4 2 -3 -6 -6 -6 -5 -5 -5 -6 -6 -5 -5 -5 -5 -6 -6 -6 -6 -6 -6 -6 -5 -5 -4 -4 -3 -3 -2 -2
2 1 0 -0 -0 0 1 1 1 1 1 1 2 3 4 4 5 5 4 3 2 -2 -5 -6 -6 -6 -5 -5 -6 -6 -6 -6 -5 -5 -6 -6 -6 -6 -6 -6 -6 -6 -6 -5 -5 -5 -4 -3 -3
1 1 -0 -0 0 0 1 1 1 1 1 1 1 1 2 3 4 4 4 3 2 1 -2 -4 -4 -4 -5 -5 -6 -6 -6 -6 -6 -6 -6 -6 -6 -6 -6 -6 -6 -6 -6 -6 -6 -5 -5 -4 -4
0 0 -0 -0 -0 0 1 1 2 1 0 0 1 1 2 2 3 3 3 3 3 3 2 1 -0 -1 -2 -3 -4 -5 -6 -6 -6 -7 -7 -7 -6 -6 -6 -6 -6 -6 -6 -6 -6 -6 -6 -5 -5
-0 -0 -0 -0 -0 0 1 1 1 1 0 0 1 2 2 2 3 3 3 4 4 4 3 3 2 2 1 -0 -1 -2 -3 -5 -6 -7 -8 -7 -7 -7 -7 -7 -7 -7 -7 -7 -7 -6 -6 -6 -6
-0 -0 -0 -0 -0 0 0 0 0 0 0 1 1 1 2 2 2 3 3 3 4 4 4 3 3 2 2 1 1 0 -1 -3 -5 -6 -7 -7 -7 -7 -7 -7 -7 -8 -8 -7 -7 -7 -7 -6 -6
1 1 0 0 0 0 0 0 0 1 1 1 2 2 2 3 3 4 4 4 4 4 4 3 3 3 2 1 0 -0 -1 -2 -3 -5 -6 -6 -6 -7 -7 -7 -8 -8 -8 -8 -8 -8 -7 -7 -6
1 1 1 0 0 0 0 0 1 1 1 2 2 3 3 4 4 5 5 5 5 4 4 4 4 3 2 1 0 -1 -2 -3 -3 -4 -5 -5 -6 -6 -7 -7 -8 -8 -8 -9 -8 -8 -7 -7 -7